CXO

Last updated on Fri Sep 11 2026 00:03:31 GMT+0000 (Coordinated Universal Time)

1 25867U 99040B 26256.64572434 .00000750 00000+0 00000+0 0 9996 2 25867 57.3947 114.3237 7696524 309.4555 0.3661 0.37807667 17655
UTC large
Height (km)
Speed (km/s)
/
Latitude / Longitude
Inclination (degrees)
Orbital Period (minutes)
Azimuth
Elevation
Range (km)
Doppler Factor

Next 0 passes for location: London (51.5072 / 0.1276)

No passes found over London.
CXO